SITE: BDASn,YEAR: 2005,,,,,,
2005date,time,pzhd (cm),gw temp (C),DWT (cm),WT elev (m),,
01/01/05,0:00,120.0,n/a-EEI,240.2,1371.119,,1/1 00:00--4/20 13:00 (EEI PT):
01/01/05,0:30,119.9,,240.3,1371.118,,Depth to water table:
01/01/05,1:00,119.9,,240.3,1371.118,,DWT = SCL - CH - h (all values in cm)
01/01/05,1:30,120.0,,240.2,1371.119,,where
01/01/05,2:00,119.9,,240.3,1371.118,,SCL = sensor cable length = 488.7 cm
01/01/05,2:30,120.1,,240.1,1371.120,,CH = casing height of well = 128.5 cm
01/01/05,3:00,120.0,,240.2,1371.119,,h = height of water above sensor (from pzhd column)
01/01/05,3:30,119.9,,240.3,1371.118,,
01/01/05,4:00,120.2,,240.0,1371.121,,WT elevation:
01/01/05,4:30,120.0,,240.3,1371.119,,Sensor elev = 1369.919 m asl
01/01/05,5:00,119.9,,240.4,1371.118,,WT elev = sensor elev + h (from pzhd column)
01/01/05,5:30,120.0,,240.2,1371.119,,
01/01/05,6:00,120.0,,240.2,1371.119,,
01/01/05,6:30,119.5,,240.7,1371.114,,
01/01/05,7:00,119.5,,240.7,1371.114,,Dates with missing data (# 0.5 hr data points):
01/01/05,7:30,119.5,,240.7,1371.114,,4/20 (3).
01/01/05,8:00,119.4,,240.8,1371.113,,
01/01/05,8:30,119.4,,240.8,1371.113,,
01/01/05,9:00,119.2,,241.0,1371.111,,Dates w/missing T data:
01/01/05,9:30,119.0,,241.2,1371.109,,4/20.
01/01/05,10:00,119.2,,241.0,1371.111,,
01/01/05,10:30,119.3,,240.9,1371.112,,
01/01/05,11:00,119.3,,240.9,1371.112,,
01/01/05,11:30,119.6,,240.6,1371.115,,
01/01/05,12:00,119.8,,240.4,1371.117,,
01/01/05,12:30,120.3,,239.9,1371.122,,
01/01/05,13:00,120.5,,239.7,1371.124,,
01/01/05,13:30,120.6,,239.6,1371.125,,
01/01/05,14:00,120.8,,239.4,1371.127,,
01/01/05,14:30,120.4,,239.9,1371.123,,
01/01/05,15:00,120.3,,240.0,1371.122,,
01/01/05,15:30,120.3,,239.9,1371.122,,
01/01/05,16:00,120.3,,239.9,1371.122,,
01/01/05,16:30,119.8,,240.4,1371.117,,
01/01/05,17:00,120.1,,240.1,1371.120,,
01/01/05,17:30,120.1,,240.1,1371.120,,
01/01/05,18:00,120.0,,240.2,1371.119,,
01/01/05,18:30,120.5,,239.7,1371.124,,
01/01/05,19:00,119.5,,240.7,1371.114,,
01/01/05,19:30,119.5,,240.7,1371.114,,
01/01/05,20:00,119.4,,240.8,1371.113,,
01/01/05,20:30,119.0,,241.2,1371.109,,
01/01/05,21:00,119.3,,240.9,1371.112,,
01/01/05,21:30,119.4,,240.8,1371.113,,
01/01/05,22:00,119.3,,240.9,1371.112,,
01/01/05,22:30,119.3,,240.9,1371.112,,
01/01/05,23:00,119.3,,240.9,1371.112,,
01/01/05,23:30,119.5,,240.7,1371.114,,
01/02/05,0:00,119.5,,240.7,1371.114,,
01/02/05,0:30,119.5,,240.7,1371.114,,
01/02/05,1:00,119.7,,240.6,1371.116,,
01/02/05,1:30,119.8,,240.5,1371.117,,
01/02/05,2:00,119.8,,240.4,1371.117,,
01/02/05,2:30,119.8,,240.4,1371.117,,
01/02/05,3:00,119.8,,240.4,1371.117,,
01/02/05,3:30,120.0,,240.2,1371.119,,
01/02/05,4:00,119.8,,240.4,1371.117,,
01/02/05,4:30,120.2,,240.0,1371.121,,
01/02/05,5:00,120.2,,240.0,1371.121,,
01/02/05,5:30,120.0,,240.2,1371.119,,
01/02/05,6:00,120.0,,240.2,1371.119,,
01/02/05,6:30,120.1,,240.1,1371.120,,
01/02/05,7:00,120.1,,240.1,1371.120,,
01/02/05,7:30,120.0,,240.2,1371.119,,
01/02/05,8:00,120.2,,240.0,1371.121,,
01/02/05,8:30,120.1,,240.1,1371.120,,
01/02/05,9:00,120.0,,240.2,1371.119,,
01/02/05,9:30,119.8,,240.4,1371.117,,
01/02/05,10:00,119.8,,240.4,1371.117,,
01/02/05,10:30,119.9,,240.3,1371.118,,
01/02/05,11:00,120.1,,240.2,1371.120,,
01/02/05,11:30,120.1,,240.2,1371.120,,
01/02/05,12:00,120.2,,240.0,1371.121,,
01/02/05,12:30,120.3,,239.9,1371.122,,
01/02/05,13:00,120.6,,239.6,1371.125,,
01/02/05,13:30,120.6,,239.6,1371.125,,
01/02/05,14:00,120.5,,239.7,1371.124,,
01/02/05,14:30,120.4,,239.8,1371.123,,
01/02/05,15:00,120.6,,239.6,1371.125,,
01/02/05,15:30,120.6,,239.6,1371.125,,
01/02/05,16:00,120.6,,239.6,1371.125,,
01/02/05,16:30,120.3,,239.9,1371.122,,
01/02/05,17:00,120.5,,239.7,1371.124,,
01/02/05,17:30,120.5,,239.7,1371.124,,
01/02/05,18:00,120.4,,239.8,1371.123,,
01/02/05,18:30,120.1,,240.1,1371.120,,
01/02/05,19:00,120.0,,240.2,1371.119,,
01/02/05,19:30,120.2,,240.0,1371.121,,
01/02/05,20:00,119.9,,240.3,1371.118,,
01/02/05,20:30,120.0,,240.2,1371.119,,
01/02/05,21:00,120.0,,240.2,1371.119,,
01/02/05,21:30,119.9,,240.4,1371.118,,
01/02/05,22:00,120.0,,240.3,1371.119,,
01/02/05,22:30,119.7,,240.5,1371.116,,
01/02/05,23:00,119.4,,240.8,1371.113,,
01/02/05,23:30,119.6,,240.6,1371.115,,
01/03/05,0:00,119.9,,240.3,1371.118,,
01/03/05,0:30,120.0,,240.2,1371.119,,
01/03/05,1:00,120.1,,240.1,1371.120,,
01/03/05,1:30,120.0,,240.2,1371.119,,
01/03/05,2:00,120.1,,240.1,1371.120,,
01/03/05,2:30,120.0,,240.2,1371.119,,
01/03/05,3:00,120.1,,240.1,1371.120,,
01/03/05,3:30,120.1,,240.1,1371.120,,
01/03/05,4:00,120.3,,239.9,1371.122,,
01/03/05,4:30,120.4,,239.8,1371.123,,
01/03/05,5:00,120.4,,239.8,1371.123,,
01/03/05,5:30,120.2,,240.0,1371.121,,
01/03/05,6:00,120.1,,240.1,1371.120,,
01/03/05,6:30,120.1,,240.1,1371.120,,
01/03/05,7:00,120.2,,240.0,1371.121,,
01/03/05,7:30,120.3,,240.0,1371.122,,
01/03/05,8:00,120.2,,240.1,1371.121,,
01/03/05,8:30,120.2,,240.0,1371.121,,
01/03/05,9:00,120.0,,240.2,1371.119,,
01/03/05,9:30,119.8,,240.4,1371.117,,
01/03/05,10:00,120.0,,240.2,1371.119,,
01/03/05,10:30,120.2,,240.0,1371.121,,
01/03/05,11:00,120.4,,239.8,1371.123,,
01/03/05,11:30,120.5,,239.7,1371.124,,
01/03/05,12:00,120.9,,239.3,1371.128,,
01/03/05,12:30,121.2,,239.0,1371.131,,
01/03/05,13:00,121.3,,238.9,1371.132,,
01/03/05,13:30,121.3,,238.9,1371.132,,
01/03/05,14:00,121.6,,238.6,1371.135,,
01/03/05,14:30,121.4,,238.8,1371.133,,
01/03/05,15:00,121.5,,238.7,1371.134,,
01/03/05,15:30,121.3,,238.9,1371.132,,
01/03/05,16:00,121.2,,239.0,1371.131,,
01/03/05,16:30,121.4,,238.8,1371.133,,
01/03/05,17:00,121.4,,238.8,1371.133,,
01/03/05,17:30,121.3,,239.0,1371.132,,
01/03/05,18:00,121.3,,239.0,1371.132,,
01/03/05,18:30,121.3,,238.9,1371.132,,
01/03/05,19:00,121.1,,239.1,1371.130,,
01/03/05,19:30,120.8,,239.4,1371.127,,
01/03/05,20:00,121.0,,239.2,1371.129,,
01/03/05,20:30,120.8,,239.4,1371.127,,
01/03/05,21:00,121.2,,239.0,1371.131,,
01/03/05,21:30,120.9,,239.3,1371.128,,
01/03/05,22:00,121.7,,238.5,1371.136,,
01/03/05,22:30,121.4,,238.8,1371.133,,
01/03/05,23:00,121.5,,238.7,1371.134,,
01/03/05,23:30,121.7,,238.5,1371.136,,
01/04/05,0:00,121.9,,238.3,1371.138,,
01/04/05,0:30,122.0,,238.2,1371.139,,
01/04/05,1:00,122.1,,238.1,1371.140,,
01/04/05,1:30,121.9,,238.3,1371.138,,
01/04/05,2:00,122.0,,238.2,1371.139,,
01/04/05,2:30,122.1,,238.1,1371.140,,
01/04/05,3:00,121.9,,238.3,1371.138,,
01/04/05,3:30,122.1,,238.1,1371.140,,
01/04/05,4:00,122.2,,238.1,1371.141,,
01/04/05,4:30,122.1,,238.2,1371.140,,
01/04/05,5:00,121.8,,238.4,1371.137,,
01/04/05,5:30,121.9,,238.3,1371.138,,
01/04/05,6:00,121.9,,238.3,1371.138,,
01/04/05,6:30,121.8,,238.4,1371.137,,
01/04/05,7:00,121.7,,238.5,1371.136,,
01/04/05,7:30,121.8,,238.4,1371.137,,
01/04/05,8:00,122.2,,238.0,1371.141,,
01/04/05,8:30,122.0,,238.2,1371.139,,
01/04/05,9:00,121.9,,238.3,1371.138,,
01/04/05,9:30,122.1,,238.1,1371.140,,
01/04/05,10:00,122.0,,238.2,1371.139,,
01/04/05,10:30,121.8,,238.4,1371.137,,
01/04/05,11:00,121.9,,238.3,1371.138,,
01/04/05,11:30,122.3,,237.9,1371.142,,
01/04/05,12:00,122.7,,237.5,1371.146,,
01/04/05,12:30,122.6,,237.6,1371.145,,
01/04/05,13:00,123.1,,237.1,1371.150,,
01/04/05,13:30,123.0,,237.2,1371.149,,
01/04/05,14:00,122.6,,237.7,1371.145,,
01/04/05,14:30,122.5,,237.8,1371.144,,
01/04/05,15:00,122.6,,237.6,1371.145,,
01/04/05,15:30,122.3,,237.9,1371.142,,
01/04/05,16:00,122.6,,237.6,1371.145,,
01/04/05,16:30,122.5,,237.7,1371.144,,
01/04/05,17:00,122.2,,238.0,1371.141,,
01/04/05,17:30,122.6,,237.6,1371.145,,
01/04/05,18:00,122.5,,237.7,1371.144,,
01/04/05,18:30,122.3,,237.9,1371.142,,
01/04/05,19:00,122.2,,238.0,1371.141,,
01/04/05,19:30,122.3,,237.9,1371.142,,
01/04/05,20:00,122.2,,238.0,1371.141,,
01/04/05,20:30,122.0,,238.2,1371.139,,
01/04/05,21:00,122.0,,238.2,1371.139,,
01/04/05,21:30,122.3,,237.9,1371.142,,
01/04/05,22:00,122.0,,238.2,1371.139,,
01/04/05,22:30,121.9,,238.3,1371.138,,
01/04/05,23:00,121.6,,238.6,1371.135,,
01/04/05,23:30,122.1,,238.1,1371.140,,
01/05/05,0:00,121.8,,238.4,1371.137,,
01/05/05,0:30,122.0,,238.3,1371.139,,
01/05/05,1:00,122.2,,238.1,1371.141,,
01/05/05,1:30,122.1,,238.1,1371.140,,
01/05/05,2:00,122.2,,238.0,1371.141,,
01/05/05,2:30,122.4,,237.8,1371.143,,
01/05/05,3:00,122.0,,238.2,1371.139,,
01/05/05,3:30,122.3,,237.9,1371.142,,
01/05/05,4:00,122.0,,238.2,1371.139,,
01/05/05,4:30,122.1,,238.1,1371.140,,
01/05/05,5:00,122.3,,237.9,1371.142,,
01/05/05,5:30,122.1,,238.1,1371.140,,
01/05/05,6:00,122.1,,238.1,1371.140,,
01/05/05,6:30,122.2,,238.0,1371.141,,
01/05/05,7:00,122.1,,238.1,1371.140,,
01/05/05,7:30,122.2,,238.0,1371.141,,
01/05/05,8:00,122.1,,238.1,1371.140,,
01/05/05,8:30,122.2,,238.0,1371.141,,
01/05/05,9:00,122.2,,238.0,1371.141,,
01/05/05,9:30,121.9,,238.3,1371.138,,
01/05/05,10:00,121.9,,238.3,1371.138,,
01/05/05,10:30,122.0,,238.3,1371.139,,
01/05/05,11:00,122.2,,238.1,1371.141,,
01/05/05,11:30,122.5,,237.7,1371.144,,
01/05/05,12:00,122.9,,237.3,1371.148,,
01/05/05,12:30,122.9,,237.3,1371.148,,
01/05/05,13:00,123.1,,237.1,1371.150,,
01/05/05,13:30,123.1,,237.1,1371.150,,
01/05/05,14:00,123.1,,237.1,1371.150,,
01/05/05,14:30,123.1,,237.1,1371.150,,
01/05/05,15:00,123.0,,237.2,1371.149,,
01/05/05,15:30,122.8,,237.4,1371.147,,
01/05/05,16:00,123.1,,237.1,1371.150,,
01/05/05,16:30,123.1,,237.1,1371.150,,
01/05/05,17:00,122.9,,237.3,1371.148,,
01/05/05,17:30,122.9,,237.3,1371.148,,
01/05/05,18:00,122.7,,237.5,1371.146,,
01/05/05,18:30,122.4,,237.8,1371.143,,
01/05/05,19:00,122.3,,237.9,1371.142,,
01/05/05,19:30,122.6,,237.6,1371.145,,
01/05/05,20:00,122.5,,237.7,1371.144,,
01/05/05,20:30,122.6,,237.6,1371.145,,
01/05/05,21:00,122.8,,237.5,1371.147,,
01/05/05,21:30,122.8,,237.5,1371.147,,
01/05/05,22:00,122.5,,237.7,1371.144,,
01/05/05,22:30,122.7,,237.5,1371.146,,
01/05/05,23:00,122.9,,237.3,1371.148,,
01/05/05,23:30,123.0,,237.2,1371.149,,
01/06/05,0:00,123.2,,237.0,1371.151,,
01/06/05,0:30,123.1,,237.1,1371.150,,
01/06/05,1:00,123.2,,237.0,1371.151,,
01/06/05,1:30,123.3,,236.9,1371.152,,
01/06/05,2:00,123.4,,236.8,1371.153,,
01/06/05,2:30,123.5,,236.7,1371.154,,
01/06/05,3:00,123.4,,236.8,1371.153,,
01/06/05,3:30,123.5,,236.7,1371.154,,
01/06/05,4:00,123.6,,236.6,1371.155,,
01/06/05,4:30,123.6,,236.6,1371.155,,
01/06/05,5:00,123.6,,236.6,1371.155,,
01/06/05,5:30,123.7,,236.5,1371.156,,
01/06/05,6:00,123.3,,236.9,1371.152,,
01/06/05,6:30,123.7,,236.5,1371.156,,
01/06/05,7:00,123.5,,236.8,1371.154,,
01/06/05,7:30,123.7,,236.6,1371.156,,
01/06/05,8:00,123.4,,236.8,1371.153,,
01/06/05,8:30,123.5,,236.7,1371.154,,
01/06/05,9:00,123.6,,236.6,1371.155,,
01/06/05,9:30,123.5,,236.7,1371.154,,
01/06/05,10:00,123.7,,236.5,1371.156,,
01/06/05,10:30,123.8,,236.4,1371.157,,
01/06/05,11:00,123.9,,236.3,1371.158,,
01/06/05,11:30,124.2,,236.0,1371.161,,
01/06/05,12:00,124.5,,235.7,1371.164,,
01/06/05,12:30,124.5,,235.7,1371.164,,
01/06/05,13:00,124.7,,235.5,1371.166,,
01/06/05,13:30,124.9,,235.3,1371.168,,
01/06/05,14:00,124.9,,235.3,1371.168,,
01/06/05,14:30,125.0,,235.2,1371.169,,
01/06/05,15:00,124.7,,235.5,1371.166,,
01/06/05,15:30,124.9,,235.3,1371.168,,
01/06/05,16:00,125.0,,235.2,1371.169,,
01/06/05,16:30,124.7,,235.5,1371.166,,
01/06/05,17:00,124.9,,235.4,1371.168,,
01/06/05,17:30,124.9,,235.4,1371.168,,
01/06/05,18:00,124.4,,235.8,1371.163,,
01/06/05,18:30,124.4,,235.8,1371.163,,
01/06/05,19:00,124.5,,235.7,1371.164,,
01/06/05,19:30,124.4,,235.8,1371.163,,
01/06/05,20:00,124.2,,236.0,1371.161,,
01/06/05,20:30,124.4,,235.8,1371.163,,
01/06/05,21:00,124.2,,236.0,1371.161,,
01/06/05,21:30,124.3,,235.9,1371.162,,
01/06/05,22:00,124.4,,235.8,1371.163,,
01/06/05,22:30,124.3,,235.9,1371.162,,
01/06/05,23:00,124.2,,236.0,1371.161,,
01/06/05,23:30,124.4,,235.8,1371.163,,
01/07/05,0:00,124.5,,235.7,1371.164,,
01/07/05,0:30,124.5,,235.7,1371.164,,
01/07/05,1:00,125.1,,235.1,1371.170,,
01/07/05,1:30,124.9,,235.3,1371.168,,
01/07/05,2:00,124.8,,235.4,1371.167,,
01/07/05,2:30,124.7,,235.5,1371.166,,
01/07/05,3:00,124.6,,235.6,1371.165,,
01/07/05,3:30,124.7,,235.6,1371.166,,
01/07/05,4:00,124.4,,235.9,1371.163,,
01/07/05,4:30,124.4,,235.8,1371.163,,
01/07/05,5:00,124.2,,236.0,1371.161,,
01/07/05,5:30,124.2,,236.0,1371.161,,
01/07/05,6:00,124.0,,236.2,1371.159,,
01/07/05,6:30,123.8,,236.4,1371.157,,
01/07/05,7:00,123.8,,236.4,1371.157,,
01/07/05,7:30,124.0,,236.2,1371.159,,
01/07/05,8:00,123.7,,236.5,1371.156,,
01/07/05,8:30,123.9,,236.3,1371.158,,
01/07/05,9:00,123.8,,236.4,1371.157,,
01/07/05,9:30,123.6,,236.6,1371.155,,
01/07/05,10:00,123.9,,236.3,1371.158,,
01/07/05,10:30,124.2,,236.0,1371.161,,
01/07/05,11:00,124.4,,235.8,1371.163,,
01/07/05,11:30,124.7,,235.5,1371.166,,
01/07/05,12:00,124.9,,235.3,1371.168,,
01/07/05,12:30,124.8,,235.4,1371.167,,
01/07/05,13:00,124.9,,235.3,1371.168,,
01/07/05,13:30,124.9,,235.4,1371.168,,
01/07/05,14:00,124.8,,235.5,1371.167,,
01/07/05,14:30,124.5,,235.7,1371.164,,
01/07/05,15:00,124.8,,235.4,1371.167,,
01/07/05,15:30,124.6,,235.6,1371.165,,
01/07/05,16:00,124.5,,235.7,1371.164,,
01/07/05,16:30,124.7,,235.5,1371.166,,
01/07/05,17:00,124.4,,235.8,1371.163,,
01/07/05,17:30,124.5,,235.7,1371.164,,
01/07/05,18:00,124.5,,235.7,1371.164,,
01/07/05,18:30,124.3,,235.9,1371.162,,
01/07/05,19:00,124.2,,236.0,1371.161,,
01/07/05,19:30,124.1,,236.1,1371.160,,
01/07/05,20:00,124.2,,236.0,1371.161,,
01/07/05,20:30,124.1,,236.1,1371.160,,
01/07/05,21:00,123.8,,236.4,1371.157,,
01/07/05,21:30,123.7,,236.5,1371.156,,
01/07/05,22:00,123.7,,236.5,1371.156,,
01/07/05,22:30,123.8,,236.4,1371.157,,
01/07/05,23:00,124.1,,236.1,1371.160,,
01/07/05,23:30,124.2,,236.0,1371.161,,
01/08/05,0:00,124.3,,236.0,1371.162,,
01/08/05,0:30,124.3,,236.0,1371.162,,
01/08/05,1:00,124.2,,236.0,1371.161,,
01/08/05,1:30,124.1,,236.1,1371.160,,
01/08/05,2:00,124.1,,236.1,1371.160,,
01/08/05,2:30,124.2,,236.0,1371.161,,
01/08/05,3:00,124.2,,236.0,1371.161,,
01/08/05,3:30,124.1,,236.1,1371.160,,
01/08/05,4:00,124.2,,236.0,1371.161,,
01/08/05,4:30,124.4,,235.8,1371.163,,
01/08/05,5:00,124.4,,235.8,1371.163,,
01/08/05,5:30,124.5,,235.7,1371.164,,
01/08/05,6:00,124.3,,235.9,1371.162,,
01/08/05,6:30,124.0,,236.2,1371.159,,
01/08/05,7:00,123.8,,236.4,1371.157,,
01/08/05,7:30,124.0,,236.2,1371.159,,
01/08/05,8:00,123.6,,236.6,1371.155,,
01/08/05,8:30,123.7,,236.5,1371.156,,
01/08/05,9:00,123.4,,236.8,1371.153,,
01/08/05,9:30,123.6,,236.6,1371.155,,
01/08/05,10:00,123.6,,236.7,1371.155,,
01/08/05,10:30,123.8,,236.5,1371.157,,
01/08/05,11:00,123.8,,236.4,1371.157,,
01/08/05,11:30,124.2,,236.0,1371.161,,
01/08/05,12:00,124.4,,235.8,1371.163,,
01/08/05,12:30,124.6,,235.6,1371.165,,
01/08/05,13:00,125.5,,234.7,1371.174,,
01/08/05,13:30,124.9,,235.3,1371.168,,
01/08/05,14:00,124.8,,235.4,1371.167,,
01/08/05,14:30,124.7,,235.5,1371.166,,
01/08/05,15:00,124.7,,235.5,1371.166,,
01/08/05,15:30,124.5,,235.7,1371.164,,
01/08/05,16:00,124.4,,235.8,1371.163,,
01/08/05,16:30,124.0,,236.2,1371.159,,
01/08/05,17:00,124.2,,236.0,1371.161,,
01/08/05,17:30,124.3,,235.9,1371.162,,
01/08/05,18:00,124.1,,236.1,1371.160,,
01/08/05,18:30,124.0,,236.2,1371.159,,
01/08/05,19:00,124.2,,236.0,1371.161,,
01/08/05,19:30,123.7,,236.5,1371.156,,
01/08/05,20:00,123.8,,236.4,1371.157,,
01/08/05,20:30,123.8,,236.5,1371.157,,
01/08/05,21:00,123.4,,236.9,1371.153,,
01/08/05,21:30,123.7,,236.5,1371.156,,
01/08/05,22:00,123.2,,237.0,1371.151,,
01/08/05,22:30,123.4,,236.8,1371.153,,
01/08/05,23:00,123.6,,236.6,1371.155,,
01/08/05,23:30,123.8,,236.4,1371.157,,
01/09/05,0:00,123.8,,236.4,1371.157,,
01/09/05,0:30,123.9,,236.3,1371.158,,
01/09/05,1:00,124.1,,236.1,1371.160,,
01/09/05,1:30,124.2,,236.0,1371.161,,
01/09/05,2:00,124.3,,235.9,1371.162,,
01/09/05,2:30,124.4,,235.8,1371.163,,
01/09/05,3:00,124.5,,235.7,1371.164,,
01/09/05,3:30,124.2,,236.0,1371.161,,
01/09/05,4:00,124.2,,236.0,1371.161,,
01/09/05,4:30,124.2,,236.0,1371.161,,
01/09/05,5:00,124.2,,236.0,1371.161,,
01/09/05,5:30,124.2,,236.0,1371.161,,
01/09/05,6:00,124.2,,236.0,1371.161,,
01/09/05,6:30,124.2,,236.1,1371.161,,
01/09/05,7:00,124.2,,236.1,1371.161,,
01/09/05,7:30,124.0,,236.2,1371.159,,
01/09/05,8:00,123.8,,236.4,1371.157,,
01/09/05,8:30,125.3,,234.9,1371.172,,
01/09/05,9:00,123.5,,236.7,1371.154,,
01/09/05,9:30,123.7,,236.5,1371.156,,
01/09/05,10:00,123.6,,236.6,1371.155,,
01/09/05,10:30,123.7,,236.5,1371.156,,
01/09/05,11:00,123.9,,236.3,1371.158,,
01/09/05,11:30,124.2,,236.0,1371.161,,
01/09/05,12:00,124.6,,235.6,1371.165,,
01/09/05,12:30,124.7,,235.5,1371.166,,
01/09/05,13:00,124.7,,235.5,1371.166,,
01/09/05,13:30,124.7,,235.5,1371.166,,
01/09/05,14:00,124.9,,235.3,1371.168,,
01/09/05,14:30,124.7,,235.5,1371.166,,
01/09/05,15:00,124.7,,235.5,1371.166,,
01/09/05,15:30,124.6,,235.6,1371.165,,
01/09/05,16:00,124.6,,235.6,1371.165,,
01/09/05,16:30,124.8,,235.5,1371.167,,
01/09/05,17:00,124.6,,235.7,1371.165,,
01/09/05,17:30,124.4,,235.8,1371.163,,
01/09/05,18:00,124.4,,235.8,1371.163,,
01/09/05,18:30,124.2,,236.0,1371.161,,
01/09/05,19:00,124.3,,235.9,1371.162,,
01/09/05,19:30,124.0,,236.2,1371.159,,
01/09/05,20:00,124.1,,236.1,1371.160,,
01/09/05,20:30,124.3,,235.9,1371.162,,
01/09/05,21:00,124.3,,235.9,1371.162,,
01/09/05,21:30,124.0,,236.2,1371.159,,
01/09/05,22:00,123.9,,236.3,1371.158,,
01/09/05,22:30,124.2,,236.0,1371.161,,
01/09/05,23:00,124.2,,236.0,1371.161,,
01/09/05,23:30,124.3,,235.9,1371.162,,
01/10/05,0:00,124.5,,235.7,1371.164,,
01/10/05,0:30,124.6,,235.6,1371.165,,
01/10/05,1:00,124.5,,235.7,1371.164,,
01/10/05,1:30,124.4,,235.8,1371.163,,
01/10/05,2:00,124.4,,235.8,1371.163,,
01/10/05,2:30,124.8,,235.4,1371.167,,
01/10/05,3:00,124.5,,235.8,1371.164,,
01/10/05,3:30,124.7,,235.6,1371.166,,
01/10/05,4:00,124.5,,235.7,1371.164,,
01/10/05,4:30,124.7,,235.5,1371.166,,
01/10/05,5:00,124.8,,235.4,1371.167,,
01/10/05,5:30,124.9,,235.3,1371.168,,
01/10/05,6:00,124.8,,235.4,1371.167,,
01/10/05,6:30,124.7,,235.5,1371.166,,
01/10/05,7:00,124.8,,235.4,1371.167,,
01/10/05,7:30,124.3,,235.9,1371.162,,
01/10/05,8:00,124.3,,235.9,1371.162,,
01/10/05,8:30,124.4,,235.8,1371.163,,
01/10/05,9:00,124.6,,235.6,1371.165,,
01/10/05,9:30,124.4,,235.8,1371.163,,
01/10/05,10:00,124.4,,235.8,1371.163,,
01/10/05,10:30,124.6,,235.6,1371.165,,
01/10/05,11:00,124.6,,235.6,1371.165,,
01/10/05,11:30,125.0,,235.2,1371.169,,
01/10/05,12:00,125.3,,234.9,1371.172,,
01/10/05,12:30,125.3,,234.9,1371.172,,
01/10/05,13:00,125.3,,235.0,1371.172,,
01/10/05,13:30,125.5,,234.8,1371.174,,
01/10/05,14:00,125.5,,234.7,1371.174,,
01/10/05,14:30,125.4,,234.8,1371.173,,
01/10/05,15:00,125.4,,234.8,1371.173,,
01/10/05,15:30,125.3,,234.9,1371.172,,
01/10/05,16:00,125.8,,234.4,1371.177,,
01/10/05,16:30,125.2,,235.0,1371.171,,
01/10/05,17:00,125.4,,234.8,1371.173,,
01/10/05,17:30,125.5,,234.7,1371.174,,
01/10/05,18:00,125.2,,235.0,1371.171,,
01/10/05,18:30,125.5,,234.7,1371.174,,
01/10/05,19:00,125.5,,234.7,1371.174,,
01/10/05,19:30,125.4,,234.8,1371.173,,
01/10/05,20:00,125.2,,235.0,1371.171,,
01/10/05,20:30,125.3,,234.9,1371.172,,
01/10/05,21:00,125.5,,234.7,1371.174,,
01/10/05,21:30,125.8,,234.4,1371.177,,
01/10/05,22:00,125.9,,234.3,1371.178,,
01/10/05,22:30,125.8,,234.4,1371.177,,
01/10/05,23:00,126.0,,234.2,1371.179,,
01/10/05,23:30,126.3,,234.0,1371.182,,
01/11/05,0:00,126.6,,233.7,1371.185,,
01/11/05,0:30,126.8,,233.4,1371.187,,
01/11/05,1:00,127.0,,233.2,1371.189,,
01/11/05,1:30,127.2,,233.0,1371.191,,
01/11/05,2:00,127.4,,232.8,1371.193,,
01/11/05,2:30,127.5,,232.7,1371.194,,
01/11/05,3:00,127.5,,232.7,1371.194,,
01/11/05,3:30,127.8,,232.4,1371.197,,
01/11/05,4:00,128.2,,232.0,1371.201,,
01/11/05,4:30,128.4,,231.8,1371.203,,
01/11/05,5:00,128.1,,232.1,1371.200,,
01/11/05,5:30,128.6,,231.6,1371.205,,
01/11/05,6:00,128.7,,231.5,1371.206,,
01/11/05,6:30,128.9,,231.3,1371.208,,
01/11/05,7:00,129.0,,231.2,1371.209,,
01/11/05,7:30,129.2,,231.0,1371.211,,
01/11/05,8:00,129.2,,231.0,1371.211,,
01/11/05,8:30,129.6,,230.6,1371.215,,
01/11/05,9:00,129.6,,230.6,1371.215,,
01/11/05,9:30,130.3,,230.0,1371.222,,
01/11/05,10:00,130.6,,229.7,1371.225,,
01/11/05,10:30,130.4,,229.8,1371.223,,
01/11/05,11:00,130.8,,229.4,1371.227,,
01/11/05,11:30,131.1,,229.1,1371.230,,
01/11/05,12:00,131.6,,228.6,1371.235,,
01/11/05,12:30,131.7,,228.5,1371.236,,
01/11/05,13:00,132.2,,228.0,1371.241,,
01/11/05,13:30,132.3,,227.9,1371.242,,
01/11/05,14:00,132.4,,227.8,1371.243,,
01/11/05,14:30,132.4,,227.8,1371.243,,
01/11/05,15:00,132.8,,227.4,1371.247,,
01/11/05,15:30,133.3,,226.9,1371.252,,
01/11/05,16:00,132.7,,227.5,1371.246,,
01/11/05,16:30,133.2,,227.0,1371.251,,
01/11/05,17:00,133.5,,226.7,1371.254,,
01/11/05,17:30,133.7,,226.5,1371.256,,
01/11/05,18:00,134.1,,226.1,1371.260,,
01/11/05,18:30,134.3,,225.9,1371.262,,
01/11/05,19:00,134.5,,225.7,1371.264,,
01/11/05,19:30,134.7,,225.5,1371.266,,
01/11/05,20:00,134.6,,225.7,1371.265,,
01/11/05,20:30,134.6,,225.7,1371.265,,
01/11/05,21:00,134.8,,225.4,1371.267,,
01/11/05,21:30,135.1,,225.1,1371.270,,
01/11/05,22:00,135.4,,224.8,1371.273,,
01/11/05,22:30,135.3,,224.9,1371.272,,
01/11/05,23:00,135.4,,224.8,1371.273,,
01/11/05,23:30,135.5,,224.7,1371.274,,
01/12/05,0:00,136.0,,224.2,1371.279,,
01/12/05,0:30,135.8,,224.4,1371.277,,
01/12/05,1:00,136.0,,224.2,1371.279,,
01/12/05,1:30,136.1,,224.1,1371.280,,
01/12/05,2:00,135.5,,224.7,1371.274,,
01/12/05,2:30,135.9,,224.3,1371.278,,
01/12/05,3:00,136.3,,223.9,1371.282,,
01/12/05,3:30,136.5,,223.7,1371.284,,
01/12/05,4:00,136.3,,223.9,1371.282,,
01/12/05,4:30,136.9,,223.3,1371.288,,
01/12/05,5:00,137.2,,223.0,1371.291,,
01/12/05,5:30,137.3,,222.9,1371.292,,
01/12/05,6:00,137.5,,222.8,1371.294,,
01/12/05,6:30,137.2,,223.1,1371.291,,
01/12/05,7:00,137.3,,222.9,1371.292,,
01/12/05,7:30,137.6,,222.6,1371.295,,
01/12/05,8:00,137.7,,222.5,1371.296,,
01/12/05,8:30,137.9,,222.3,1371.298,,
01/12/05,9:00,138.4,,221.8,1371.303,,
01/12/05,9:30,138.1,,222.1,1371.300,,
01/12/05,10:00,137.6,,222.6,1371.295,,
01/12/05,10:30,138.3,,221.9,1371.302,,
01/12/05,11:00,138.8,,221.4,1371.307,,
01/12/05,11:30,139.2,,221.0,1371.311,,
01/12/05,12:00,139.4,,220.8,1371.313,,
01/12/05,12:30,139.7,,220.5,1371.316,,
01/12/05,13:00,139.8,,220.4,1371.317,,
01/12/05,13:30,139.9,,220.3,1371.318,,
01/12/05,14:00,139.9,,220.3,1371.318,,
01/12/05,14:30,139.9,,220.3,1371.318,,
01/12/05,15:00,139.9,,220.3,1371.318,,
01/12/05,15:30,139.8,,220.4,1371.317,,
01/12/05,16:00,139.8,,220.5,1371.317,,
01/12/05,16:30,140.0,,220.3,1371.319,,
01/12/05,17:00,139.8,,220.4,1371.317,,
01/12/05,17:30,140.0,,220.2,1371.319,,
01/12/05,18:00,140.7,,219.5,1371.326,,
01/12/05,18:30,140.2,,220.0,1371.321,,
01/12/05,19:00,140.5,,219.7,1371.324,,
01/12/05,19:30,140.7,,219.5,1371.326,,
01/12/05,20:00,140.9,,219.3,1371.328,,
01/12/05,20:30,140.7,,219.5,1371.326,,
01/12/05,21:00,141.2,,219.0,1371.331,,
01/12/05,21:30,141.3,,218.9,1371.332,,
01/12/05,22:00,141.6,,218.6,1371.335,,
01/12/05,22:30,141.8,,218.4,1371.337,,
01/12/05,23:00,142.0,,218.2,1371.339,,
01/12/05,23:30,142.1,,218.1,1371.340,,
01/13/05,0:00,142.6,,217.6,1371.345,,
01/13/05,0:30,142.8,,217.4,1371.347,,
01/13/05,1:00,142.7,,217.5,1371.346,,
01/13/05,1:30,142.9,,217.3,1371.348,,
01/13/05,2:00,143.2,,217.0,1371.351,,
01/13/05,2:30,143.3,,217.0,1371.352,,
01/13/05,3:00,143.9,,216.4,1371.358,,
01/13/05,3:30,144.1,,216.1,1371.360,,
01/13/05,4:00,144.1,,216.1,1371.360,,
01/13/05,4:30,144.3,,215.9,1371.362,,
01/13/05,5:00,145.0,,215.2,1371.369,,
01/13/05,5:30,144.8,,215.4,1371.367,,
01/13/05,6:00,145.0,,215.2,1371.369,,
01/13/05,6:30,145.0,,215.2,1371.369,,
01/13/05,7:00,145.1,,215.1,1371.370,,
01/13/05,7:30,145.4,,214.8,1371.373,,
01/13/05,8:00,145.4,,214.8,1371.373,,
01/13/05,8:30,145.6,,214.6,1371.375,,